• In Deutschland
  • Länderverzeichnis
  • Für 7 Tage
  • Wassertemperatur
  • Satellitenkarten
  • Wetterkarte
  • Widgets
  • user-avatar
    Anmelden

    Stündliche Wetter Chongru

    Heute, 23 November, Donnerstag

    Zeit Temperatur Niederschläge Wind Luftdruck Luftfeuchtigkeit
    00:00 +12°C° 0 mm 3 m/S 742 mmHg 82%
    01:00 +11°C° 0 mm 4 m/S 742 mmHg 83%
    02:00 +10°C° 0 mm 3 m/S 742 mmHg 87%
    03:00 +9°C° 0 mm 3 m/S 743 mmHg 87%
    04:00 +9°C° 0 mm 3 m/S 743 mmHg 87%
    05:00 +8°C° 0 mm 4 m/S 743 mmHg 86%
    06:00 +8°C° 0 mm 4 m/S 744 mmHg 82%
    07:00 +10°C° 0 mm 4 m/S 744 mmHg 77%
    08:00 +10°C° 0 mm 4 m/S 744 mmHg 73%
    09:00 +12°C° 0 mm 4 m/S 744 mmHg 63%
    10:00 +14°C° 0 mm 4 m/S 744 mmHg 54%
    11:00 +15°C° 0 mm 4 m/S 744 mmHg 45%
    12:00 +15°C° 0 mm 4 m/S 744 mmHg 45%
    13:00 +17°C° 0 mm 4 m/S 744 mmHg 44%
    14:00 +18°C° 0 mm 3 m/S 743 mmHg 45%
    15:00 +16°C° 0 mm 3 m/S 743 mmHg 53%
    16:00 +14°C° 0 mm 3 m/S 743 mmHg 61%
    17:00 +12°C° 0 mm 4 m/S 743 mmHg 69%
    18:00 +11°C° 0 mm 4 m/S 743 mmHg 71%
    19:00 +10°C° 0 mm 3 m/S 744 mmHg 74%
    20:00 +10°C° 0 mm 3 m/S 744 mmHg 76%
    21:00 +9°C° 0 mm 3 m/S 745 mmHg 76%
    22:00 +9°C° 0 mm 3 m/S 745 mmHg 77%
    23:00 +9°C° 0 mm 3 m/S 745 mmHg 78%

    Morgen, 24 November, Freitag

    Zeit Temperatur Niederschläge Wind Luftdruck Luftfeuchtigkeit
    00:00 +9°C° 0 mm 3 m/S 745 mmHg 77%
    01:00 +9°C° 0 mm 3 m/S 745 mmHg 77%
    02:00 +9°C° 0 mm 3 m/S 745 mmHg 77%
    03:00 +9°C° 0,1 mm 3 m/S 745 mmHg 77%
    04:00 +9°C° 0,1 mm 3 m/S 745 mmHg 78%
    05:00 +9°C° 0,1 mm 3 m/S 745 mmHg 79%
    06:00 +9°C° 0,1 mm 2 m/S 745 mmHg 78%
    07:00 +9°C° 0,1 mm 2 m/S 746 mmHg 77%
    08:00 +10°C° 0,1 mm 2 m/S 746 mmHg 76%
    09:00 +12°C° 0 mm 2 m/S 746 mmHg 68%
    10:00 +13°C° 0 mm 3 m/S 747 mmHg 61%
    11:00 +14°C° 0 mm 3 m/S 747 mmHg 53%
    12:00 +14°C° 0 mm 3 m/S 746 mmHg 51%
    13:00 +16°C° 0 mm 3 m/S 746 mmHg 49%
    14:00 +16°C° 0 mm 3 m/S 745 mmHg 46%
    15:00 +14°C° 0 mm 3 m/S 745 mmHg 51%
    16:00 +13°C° 0 mm 3 m/S 745 mmHg 56%
    17:00 +11°C° 0 mm 3 m/S 745 mmHg 61%
    18:00 +11°C° 0 mm 3 m/S 745 mmHg 62%
    19:00 +11°C° 0 mm 3 m/S 746 mmHg 63%
    20:00 +10°C° 0 mm 3 m/S 746 mmHg 64%
    21:00 +10°C° 0 mm 3 m/S 746 mmHg 65%
    22:00 +10°C° 0 mm 3 m/S 746 mmHg 66%
    23:00 +10°C° 0 mm 3 m/S 746 mmHg 67%

    übermorgen, 25 November, Samstag

    Zeit Temperatur Niederschläge Wind Luftdruck Luftfeuchtigkeit
    00:00 +10°C° 0 mm 3 m/S 746 mmHg 68%
    01:00 +9°C° 0 mm 3 m/S 746 mmHg 69%
    02:00 +9°C° 0 mm 3 m/S 746 mmHg 70%
    03:00 +9°C° 0,1 mm 3 m/S 745 mmHg 73%
    04:00 +9°C° 0,1 mm 3 m/S 745 mmHg 75%
    05:00 +9°C° 0,1 mm 3 m/S 745 mmHg 77%
    06:00 +9°C° 0,4 mm 3 m/S 745 mmHg 79%
    07:00 +9°C° 0,4 mm 3 m/S 746 mmHg 81%
    08:00 +9°C° 0,4 mm 3 m/S 746 mmHg 83%
    09:00 +9°C° 0,7 mm 3 m/S 746 mmHg 85%
    10:00 +10°C° 0,7 mm 3 m/S 746 mmHg 87%
    11:00 +10°C° 0,7 mm 3 m/S 746 mmHg 88%
    12:00 +10°C° 0,7 mm 3 m/S 745 mmHg 89%
    13:00 +12°C° 0,7 mm 2 m/S 745 mmHg 90%
    14:00 +12°C° 0,7 mm 2 m/S 744 mmHg 90%
    15:00 +12°C° 0,5 mm 2 m/S 744 mmHg 91%
    16:00 +12°C° 0,5 mm 2 m/S 744 mmHg 93%
    17:00 +12°C° 0,5 mm 2 m/S 744 mmHg 94%
    18:00 +12°C° 0,8 mm 2 m/S 744 mmHg 95%
    19:00 +12°C° 0,8 mm 2 m/S 744 mmHg 95%
    20:00 +12°C° 0,8 mm 2 m/S 745 mmHg 96%
    21:00 +12°C° 0,7 mm 2 m/S 745 mmHg 96%
    22:00 +12°C° 0,7 mm 2 m/S 745 mmHg 96%
    23:00 +12°C° 0,7 mm 2 m/S 744 mmHg 96%

    26 November, Sonntag

    Zeit Temperatur Niederschläge Wind Luftdruck Luftfeuchtigkeit
    00:00 +12°C° 0,7 mm 2 m/S 744 mmHg 96%
    01:00 +12°C° 0,7 mm 2 m/S 744 mmHg 96%
    02:00 +12°C° 0,7 mm 2 m/S 743 mmHg 96%
    03:00 +12°C° 0,8 mm 3 m/S 743 mmHg 96%
    04:00 +12°C° 0,8 mm 3 m/S 743 mmHg 95%
    05:00 +12°C° 0,8 mm 3 m/S 743 mmHg 95%
    06:00 +12°C° 0,2 mm 3 m/S 743 mmHg 95%
    07:00 +12°C° 0,2 mm 3 m/S 743 mmHg 94%
    08:00 +13°C° 0,2 mm 3 m/S 744 mmHg 93%
    09:00 +14°C° 0,1 mm 3 m/S 744 mmHg 91%
    10:00 +14°C° 0,1 mm 3 m/S 744 mmHg 89%
    11:00 +16°C° 0,1 mm 3 m/S 744 mmHg 87%
    12:00 +16°C° 0,1 mm 3 m/S 743 mmHg 87%
    13:00 +16°C° 0,1 mm 3 m/S 743 mmHg 88%
    14:00 +16°C° 0,1 mm 3 m/S 742 mmHg 88%
    15:00 +16°C° 0,2 mm 3 m/S 742 mmHg 90%
    16:00 +14°C° 0,2 mm 3 m/S 742 mmHg 92%
    17:00 +14°C° 0,2 mm 4 m/S 743 mmHg 94%
    18:00 +14°C° 0,2 mm 4 m/S 743 mmHg 94%
    19:00 +13°C° 0,2 mm 4 m/S 744 mmHg 94%
    20:00 +13°C° 0,2 mm 4 m/S 744 mmHg 94%
    21:00 +12°C° 0,5 mm 4 m/S 744 mmHg 94%
    22:00 +12°C° 0,5 mm 4 m/S 744 mmHg 93%
    23:00 +12°C° 0,5 mm 4 m/S 744 mmHg 93%

    27 November, Montag

    Zeit Temperatur Niederschläge Wind Luftdruck Luftfeuchtigkeit
    00:00 +11°C° 0 mm 4 m/S 744 mmHg 92%
    01:00 +11°C° 0 mm 4 m/S 743 mmHg 91%
    02:00 +11°C° 0 mm 4 m/S 743 mmHg 89%
    03:00 +11°C° 0 mm 3 m/S 743 mmHg 88%
    04:00 +11°C° 0 mm 3 m/S 743 mmHg 86%
    05:00 +11°C° 0 mm 3 m/S 742 mmHg 85%
    06:00 +11°C° 0 mm 3 m/S 743 mmHg 83%
    07:00 +11°C° 0 mm 3 m/S 743 mmHg 81%
    08:00 +12°C° 0 mm 3 m/S 743 mmHg 79%
    09:00 +13°C° 0 mm 3 m/S 743 mmHg 75%
    10:00 +14°C° 0 mm 3 m/S 743 mmHg 72%
    11:00 +16°C° 0 mm 3 m/S 743 mmHg 68%
    12:00 +16°C° 0 mm 3 m/S 742 mmHg 70%
    13:00 +17°C° 0 mm 3 m/S 741 mmHg 72%
    14:00 +17°C° 0 mm 3 m/S 741 mmHg 73%
    15:00 +16°C° 0 mm 3 m/S 741 mmHg 77%
    16:00 +16°C° 0 mm 3 m/S 740 mmHg 80%
    17:00 +14°C° 0 mm 3 m/S 740 mmHg 84%
    18:00 +14°C° 0 mm 3 m/S 741 mmHg 85%
    19:00 +14°C° 0 mm 2 m/S 741 mmHg 87%
    20:00 +14°C° 0 mm 2 m/S 741 mmHg 88%
    21:00 +14°C° 0 mm 2 m/S 741 mmHg 89%
    22:00 +14°C° 0 mm 2 m/S 741 mmHg 89%
    23:00 +14°C° 0 mm 2 m/S 741 mmHg 90%

    28 November, Dienstag

    Zeit Temperatur Niederschläge Wind Luftdruck Luftfeuchtigkeit
    00:00 +14°C° 0 mm 2 m/S 741 mmHg 90%
    01:00 +14°C° 0 mm 2 m/S 740 mmHg 90%
    02:00 +14°C° 0 mm 2 m/S 740 mmHg 91%
    03:00 +15°C° 0 mm 2 m/S 740 mmHg 91%
    04:00 +15°C° 0 mm 2 m/S 740 mmHg 91%
    05:00 +15°C° 0 mm 2 m/S 740 mmHg 92%
    06:00 +16°C° 0 mm 2 m/S 740 mmHg 90%
    07:00 +17°C° 0 mm 2 m/S 740 mmHg 89%
    08:00 +18°C° 0 mm 2 m/S 741 mmHg 87%
    09:00 +20°C° 0 mm 2 m/S 741 mmHg 81%
    10:00 +23°C° 0 mm 2 m/S 741 mmHg 74%
    11:00 +26°C° 0 mm 1 m/S 740 mmHg 68%
    12:00 +26°C° 0 mm 2 m/S 740 mmHg 68%
    13:00 +26°C° 0 mm 2 m/S 739 mmHg 67%
    14:00 +27°C° 0 mm 2 m/S 739 mmHg 67%
    15:00 +25°C° 0 mm 2 m/S 739 mmHg 75%
    16:00 +23°C° 0 mm 2 m/S 739 mmHg 84%
    17:00 +21°C° 0 mm 2 m/S 739 mmHg 92%
    18:00 +20°C° 0 mm 2 m/S 740 mmHg 94%
    19:00 +20°C° 0 mm 2 m/S 740 mmHg 96%
    20:00 +19°C° 0 mm 2 m/S 741 mmHg 97%
    21:00 +19°C° 0 mm 2 m/S 741 mmHg 97%
    22:00 +19°C° 0 mm 2 m/S 741 mmHg 98%
    23:00 +19°C° 0 mm 2 m/S 740 mmHg 98%
    Mehr zeigen